Location: Innsbruck
(47.2657°N, 11.3914°E)
Time: 16:39:49
(UTC+01:00)

BlueWalker 3 - Visible Passes

Search period start: 30 January 2023 00:00
Search period end: 09 February 2023 00:00
Orbit: 499 x 517 km, 53.2° (Epoch: 29 January)

Date Brightness Start Highest point End Pass type
(mag) Time Alt. Az. Time Alt. Az. Time Alt. Az.
30 Jan 2.7 19:06:15 10° W 19:09:57 42° NNW 19:10:44 36° NNE visible
31 Jan 2.8 18:47:20 10° W 18:51:01 41° NNW 18:52:38 27° NE visible
31 Jan 4.9 20:26:40 10° WNW 20:27:26 15° NW 20:27:26 15° NW visible
01 Feb 2.8 18:28:25 10° W 18:32:06 40° NNW 18:34:30 19° NE visible
01 Feb 4.3 20:07:44 10° WNW 20:09:18 21° NW 20:09:18 21° NW visible
02 Feb 2.8 18:09:29 10° W 18:13:09 39° NNW 18:16:21 13° NE visible
02 Feb 3.6 19:48:47 10° WNW 19:51:09 28° NNW 19:51:09 28° NNW visible
03 Feb 2.9 17:50:32 10° W 17:54:12 39° NNW 17:57:53 10° ENE visible
03 Feb 3.1 19:29:49 10° WNW 19:32:59 34° N 19:32:59 34° N visible
04 Feb 2.8 19:10:51 10° WNW 19:14:29 36° N 19:14:50 35° NNE visible
04 Feb 5.3 20:49:31 10° WNW 20:49:37 11° WNW 20:49:37 11° WNW visible
05 Feb 2.8 18:51:51 10° WNW 18:55:29 37° N 18:56:42 29° NE visible
05 Feb 4.7 20:30:31 10° WNW 20:31:29 17° WNW 20:31:29 17° WNW visible
06 Feb 2.8 18:32:51 10° WNW 18:36:29 37° N 18:38:36 21° ENE visible
06 Feb 4.0 20:11:30 10° WNW 20:13:23 27° WNW 20:13:23 27° WNW visible
07 Feb 2.7 18:13:50 10° WNW 18:17:29 38° NNE 18:20:32 14° ENE visible
07 Feb 2.9 19:52:28 10° WNW 19:55:20 47° WNW 19:55:20 47° WNW visible
08 Feb 2.7 17:54:48 10° WNW 17:58:27 38° NNE 18:02:08 10° E visible
08 Feb 1.9 19:33:27 10° WNW 19:37:20 77° SW 19:37:20 77° SW visible
